RYR33AT EYVI-EFHK

Flight info

Callsign RYR33AT
Flight time 0h 58m
Altitude 38000
Route TAGOL DCT LUNIT DCT TUSAS DCT DOLAT DCT KEMET/N0453F390 Q11 INTOR
Aircraft B738/M-SDE2E3FGHIRWXY/LB1

Departure

Time 2026-04-20 18:15
Airport Vilnius International Airport (EYVI)

Arrival

Time 2026-04-20 19:13
Airport Helsinki Vantaa Airport (EFHK)
Time Latitude Longitude Altitude Speed Heading
2026-04-20 17:49 54.64174 25.28496 643 ft 0 kts 358°
2026-04-20 18:09 54.64176 25.28496 643 ft 1 kts 358°
2026-04-20 18:09 54.64185 25.28496 643 ft 2 kts 358°
2026-04-20 18:10 54.64198 25.28505 643 ft 2 kts 44°
2026-04-20 18:10 54.64207 25.28532 645 ft 4 kts 64°
2026-04-20 18:10 54.64221 25.28626 647 ft 14 kts 85°
2026-04-20 18:10 54.64187 25.28684 647 ft 2 kts 172°
2026-04-20 18:11 54.64099 25.28710 645 ft 23 kts 177°
2026-04-20 18:11 54.63918 25.28615 640 ft 17 kts 202°
2026-04-20 18:11 54.63787 25.28523 627 ft 31 kts 202°
2026-04-20 18:11 54.63521 25.28334 616 ft 51 kts 201°
2026-04-20 18:12 54.63292 25.28175 612 ft 20 kts 202°
2026-04-20 18:12 54.63113 25.28052 607 ft 31 kts 202°
2026-04-20 18:12 54.62912 25.27912 603 ft 31 kts 202°
2026-04-20 18:12 54.62708 25.27770 600 ft 30 kts 202°
2026-04-20 18:13 54.62544 25.27665 602 ft 13 kts 193°
2026-04-20 18:13 54.62522 25.27664 603 ft 7 kts 171°
2026-04-20 18:13 54.62420 25.27807 612 ft 19 kts 113°
2026-04-20 18:13 54.62475 25.27925 603 ft 0 kts 21°
2026-04-20 18:14 54.62611 25.28020 601 ft 65 kts 22°
2026-04-20 18:14 54.63259 25.28467 606 ft 134 kts 21°
2026-04-20 18:14 54.64318 25.29209 957 ft 186 kts 22°
2026-04-20 18:15 54.65558 25.30111 1849 ft 201 kts 24°
2026-04-20 18:15 54.66857 25.31070 2878 ft 206 kts 25°
2026-04-20 18:15 54.68209 25.32085 3603 ft 216 kts 25°
2026-04-20 18:15 54.69609 25.33072 4015 ft 224 kts 22°
2026-04-20 18:16 54.71085 25.34016 4003 ft 227 kts 22°
2026-04-20 18:16 54.72598 25.35011 4091 ft 242 kts 22°
2026-04-20 18:16 54.74198 25.36093 5003 ft 248 kts 23°
2026-04-20 18:16 54.75813 25.37201 6133 ft 250 kts 23°
2026-04-20 18:17 54.77449 25.38287 7140 ft 254 kts 18°
2026-04-20 18:17 54.79225 25.38636 8123 ft 260 kts
2026-04-20 18:17 54.81058 25.38667 9111 ft 265 kts
2026-04-20 18:17 54.82918 25.38681 10093 ft 270 kts
2026-04-20 18:18 54.84813 25.38698 10725 ft 286 kts
2026-04-20 18:18 54.86909 25.38727 10959 ft 314 kts
2026-04-20 18:18 54.89141 25.38761 11616 ft 325 kts
2026-04-20 18:18 54.91418 25.38798 12514 ft 328 kts
2026-04-20 18:19 54.93711 25.38838 13489 ft 331 kts
2026-04-20 18:19 54.96022 25.38881 14353 ft 334 kts
2026-04-20 18:19 54.98361 25.38927 15131 ft 339 kts
2026-04-20 18:19 55.00736 25.38976 15922 ft 343 kts
2026-04-20 18:20 55.03137 25.39025 16714 ft 347 kts
2026-04-20 18:20 55.05565 25.39076 17503 ft 351 kts
2026-04-20 18:20 55.08027 25.39127 18277 ft 355 kts
2026-04-20 18:20 55.10482 25.39177 18957 ft 359 kts
2026-04-20 18:21 55.12997 25.39229 19647 ft 362 kts
2026-04-20 18:21 55.15533 25.39282 20323 ft 366 kts
2026-04-20 18:21 55.18094 25.39336 20971 ft 370 kts
2026-04-20 18:21 55.20680 25.38990 21610 ft 380 kts 350°
2026-04-20 18:22 55.23216 25.37518 22266 ft 387 kts 344°
2026-04-20 18:22 55.25755 25.35859 22874 ft 391 kts 344°
2026-04-20 18:22 55.28315 25.34186 23465 ft 395 kts 344°
2026-04-20 18:22 55.30910 25.32506 23996 ft 398 kts 345°
2026-04-20 18:23 55.33524 25.30832 24506 ft 401 kts 345°
2026-04-20 18:23 55.36154 25.29159 25004 ft 404 kts 345°
2026-04-20 18:23 55.38813 25.27471 25490 ft 407 kts 345°
2026-04-20 18:23 55.41486 25.25776 25966 ft 410 kts 345°
2026-04-20 18:24 55.43277 25.24639 26277 ft 412 kts 345°
2026-04-20 18:24 55.45985 25.22921 26728 ft 415 kts 346°
2026-04-20 18:24 55.48775 25.21810 27154 ft 409 kts
2026-04-20 18:24 55.52534 25.21478 27768 ft 410 kts
2026-04-20 18:25 55.55402 25.21303 28198 ft 413 kts
2026-04-20 18:25 55.58295 25.21121 28614 ft 416 kts
2026-04-20 18:25 55.60253 25.20985 28903 ft 418 kts
2026-04-20 18:25 55.63169 25.20765 29303 ft 420 kts
2026-04-20 18:26 55.66109 25.20523 29701 ft 423 kts
2026-04-20 18:26 55.69054 25.20269 30069 ft 426 kts
2026-04-20 18:26 55.71980 25.20010 30389 ft 428 kts
2026-04-20 18:26 55.74969 25.19743 30695 ft 430 kts
2026-04-20 18:27 55.77959 25.19473 31073 ft 430 kts
2026-04-20 18:27 55.80942 25.19203 31511 ft 429 kts
2026-04-20 18:27 55.83916 25.18934 31915 ft 428 kts
2026-04-20 18:27 55.86894 25.18666 32274 ft 429 kts
2026-04-20 18:28 55.89874 25.18399 32622 ft 429 kts
2026-04-20 18:28 55.92858 25.18131 33007 ft 429 kts
2026-04-20 18:28 55.95839 25.17862 33396 ft 428 kts
2026-04-20 18:28 55.98821 25.17593 33758 ft 429 kts
2026-04-20 18:29 56.01803 25.17324 34095 ft 429 kts
2026-04-20 18:29 56.04786 25.17055 34391 ft 429 kts
2026-04-20 18:29 56.07768 25.16785 34665 ft 430 kts
2026-04-20 18:29 56.10764 25.16513 34927 ft 431 kts
2026-04-20 18:30 56.13757 25.16241 35194 ft 431 kts
2026-04-20 18:30 56.16719 25.15972 35474 ft 431 kts
2026-04-20 18:30 56.19578 25.15855 35721 ft 430 kts
2026-04-20 18:30 56.22626 25.15951 35977 ft 430 kts
2026-04-20 18:31 56.25619 25.16128 36244 ft 431 kts
2026-04-20 18:31 56.28617 25.16315 36507 ft 431 kts
2026-04-20 18:31 56.31620 25.16483 36760 ft 431 kts
2026-04-20 18:31 56.34619 25.16629 37022 ft 431 kts
2026-04-20 18:32 56.37631 25.16763 37268 ft 432 kts
2026-04-20 18:32 56.40642 25.16890 37519 ft 432 kts
2026-04-20 18:32 56.43614 25.17016 37764 ft 433 kts
2026-04-20 18:32 56.46628 25.17145 38010 ft 433 kts
2026-04-20 18:33 56.49642 25.17134 38169 ft 436 kts
2026-04-20 18:33 56.52692 25.16865 38165 ft 441 kts 359°
2026-04-20 18:33 56.58867 25.16049 38186 ft 448 kts 359°
2026-04-20 18:34 56.65131 25.15203 38186 ft 453 kts 359°
2026-04-20 18:34 56.71439 25.14412 38180 ft 455 kts 359°
2026-04-20 18:35 56.77767 25.13650 38182 ft 456 kts 359°
2026-04-20 18:35 56.84097 25.12895 38183 ft 455 kts 359°
2026-04-20 18:36 56.90424 25.12136 38181 ft 455 kts 359°
2026-04-20 18:36 56.96738 25.11374 38193 ft 453 kts 359°
2026-04-20 18:37 57.03025 25.10613 38192 ft 452 kts 359°
2026-04-20 18:37 57.09262 25.09856 38180 ft 452 kts 359°
2026-04-20 18:38 57.15526 25.09092 38203 ft 450 kts 359°
2026-04-20 18:38 57.21780 25.08328 38201 ft 450 kts 360°
2026-04-20 18:39 57.28030 25.07562 38200 ft 449 kts 359°
2026-04-20 18:39 57.34268 25.06794 38207 ft 449 kts 360°
2026-04-20 18:40 57.40461 25.06029 38208 ft 448 kts 359°
2026-04-20 18:40 57.46684 25.05258 38213 ft 448 kts 360°
2026-04-20 18:41 57.52907 25.04484 38215 ft 447 kts 360°
2026-04-20 18:41 57.59126 25.03708 38220 ft 447 kts 360°
2026-04-20 18:42 57.65334 25.02931 38221 ft 447 kts 360°
2026-04-20 18:42 57.71516 25.02154 38221 ft 447 kts 360°
2026-04-20 18:43 57.77712 25.01373 38225 ft 446 kts 360°
2026-04-20 18:43 57.83913 25.00588 38232 ft 446 kts 360°
2026-04-20 18:44 57.90114 24.99801 38228 ft 446 kts 360°
2026-04-20 18:44 57.96317 24.99011 38235 ft 446 kts 360°
2026-04-20 18:45 58.02497 24.97777 38228 ft 451 kts 350°
2026-04-20 18:45 58.08546 24.94536 38238 ft 453 kts 347°
2026-04-20 18:46 58.14586 24.91079 38126 ft 453 kts 347°
2026-04-20 18:46 58.17597 24.89375 37827 ft 448 kts 348°
2026-04-20 18:46 58.20524 24.87733 37560 ft 442 kts 348°
2026-04-20 18:47 58.23481 24.86088 37297 ft 442 kts 348°
2026-04-20 18:47 58.26441 24.84451 37048 ft 445 kts 348°
2026-04-20 18:47 58.29426 24.82802 36797 ft 448 kts 349°
2026-04-20 18:47 58.32413 24.81146 36537 ft 447 kts 349°
2026-04-20 18:48 58.35393 24.79489 36277 ft 446 kts 349°
2026-04-20 18:48 58.38370 24.77828 36033 ft 445 kts 349°
2026-04-20 18:48 58.41343 24.76167 35780 ft 444 kts 349°
2026-04-20 18:48 58.44305 24.74508 35536 ft 443 kts 349°
2026-04-20 18:49 58.47255 24.72854 35286 ft 441 kts 349°
2026-04-20 18:49 58.50187 24.71206 35040 ft 438 kts 350°
2026-04-20 18:49 58.53106 24.69563 34793 ft 435 kts 350°
2026-04-20 18:49 58.55998 24.67933 34555 ft 432 kts 350°
2026-04-20 18:50 58.58873 24.66310 34314 ft 428 kts 351°
2026-04-20 18:50 58.61680 24.64724 34038 ft 425 kts 351°
2026-04-20 18:50 58.64511 24.63123 33757 ft 422 kts 351°
2026-04-20 18:50 58.67315 24.61532 33394 ft 417 kts 351°
2026-04-20 18:51 58.70101 24.60121 32970 ft 406 kts 358°
2026-04-20 18:51 58.72855 24.59576 32559 ft 392 kts
2026-04-20 18:51 58.75534 24.59771 32235 ft 378 kts 14°
2026-04-20 18:51 58.78096 24.60633 31832 ft 370 kts 17°
2026-04-20 18:52 58.80611 24.61583 31395 ft 367 kts 18°
2026-04-20 18:52 58.83108 24.62534 30991 ft 364 kts 18°
2026-04-20 18:52 58.85583 24.63460 30572 ft 361 kts 18°
2026-04-20 18:52 58.88045 24.64363 30131 ft 358 kts 17°
2026-04-20 18:53 58.90478 24.65245 29685 ft 353 kts 17°
2026-04-20 18:53 58.92886 24.66117 29255 ft 349 kts 17°
2026-04-20 18:53 58.95227 24.66963 28876 ft 344 kts 17°
2026-04-20 18:53 58.97573 24.67810 28467 ft 340 kts 17°
2026-04-20 18:54 58.99891 24.68649 28066 ft 337 kts 17°
2026-04-20 18:54 59.02192 24.69485 27638 ft 335 kts 17°
2026-04-20 18:54 59.04482 24.70318 27250 ft 334 kts 17°
2026-04-20 18:54 59.06793 24.71166 26839 ft 343 kts 17°
2026-04-20 18:55 59.09178 24.72047 26413 ft 352 kts 17°
2026-04-20 18:55 59.11575 24.72923 25970 ft 349 kts 17°
2026-04-20 18:55 59.13954 24.73788 25541 ft 346 kts 16°
2026-04-20 18:55 59.16308 24.74645 25129 ft 343 kts 16°
2026-04-20 18:56 59.18647 24.75500 24719 ft 340 kts 16°
2026-04-20 18:56 59.20962 24.76348 24310 ft 337 kts 16°
2026-04-20 18:56 59.23259 24.77193 23906 ft 335 kts 16°
2026-04-20 18:56 59.25507 24.78021 23442 ft 332 kts 16°
2026-04-20 18:57 59.27771 24.78856 23033 ft 329 kts 16°
2026-04-20 18:57 59.30002 24.79680 22632 ft 325 kts 16°
2026-04-20 18:57 59.32216 24.80499 22226 ft 322 kts 16°
2026-04-20 18:57 59.34404 24.81309 21844 ft 318 kts 16°
2026-04-20 18:58 59.36577 24.82116 21440 ft 316 kts 16°
2026-04-20 18:58 59.38730 24.82914 21058 ft 313 kts 15°
2026-04-20 18:58 59.40854 24.83766 20664 ft 310 kts 19°
2026-04-20 18:58 59.42871 24.85160 20220 ft 306 kts 26°
2026-04-20 18:59 59.44823 24.86807 19826 ft 304 kts 27°
2026-04-20 18:59 59.46764 24.88454 19438 ft 303 kts 26°
2026-04-20 18:59 59.48696 24.90076 19064 ft 301 kts 26°
2026-04-20 18:59 59.50625 24.91686 18691 ft 300 kts 26°
2026-04-20 19:00 59.52540 24.93280 18283 ft 299 kts 26°
2026-04-20 19:00 59.54454 24.94873 17876 ft 297 kts 26°
2026-04-20 19:00 59.56346 24.96443 17514 ft 294 kts 26°
2026-04-20 19:00 59.58222 24.98002 17151 ft 291 kts 26°
2026-04-20 19:01 59.60078 24.99555 16785 ft 289 kts 26°
2026-04-20 19:01 59.61928 25.01106 16284 ft 290 kts 26°
2026-04-20 19:01 59.63875 25.02215 15612 ft 304 kts
2026-04-20 19:01 59.66006 25.01944 15176 ft 311 kts 353°
2026-04-20 19:02 59.68108 25.00807 14813 ft 311 kts 348°
2026-04-20 19:02 59.70145 24.99504 14663 ft 302 kts 347°
2026-04-20 19:02 59.72102 24.98208 14587 ft 291 kts 347°
2026-04-20 19:02 59.73986 24.96965 14457 ft 282 kts 347°
2026-04-20 19:03 59.75834 24.95760 14186 ft 279 kts 348°
2026-04-20 19:03 59.77681 24.94569 13832 ft 278 kts 348°
2026-04-20 19:03 59.79516 24.93392 13495 ft 277 kts 348°
2026-04-20 19:03 59.81342 24.92224 13169 ft 275 kts 348°
2026-04-20 19:04 59.83162 24.91062 12833 ft 274 kts 348°
2026-04-20 19:04 59.84976 24.89904 12507 ft 273 kts 348°
2026-04-20 19:04 59.86785 24.88749 12201 ft 271 kts 348°
2026-04-20 19:04 59.88579 24.87603 11884 ft 270 kts 347°
2026-04-20 19:05 59.90369 24.86459 11565 ft 269 kts 347°
2026-04-20 19:05 59.92170 24.85310 11029 ft 278 kts 347°
2026-04-20 19:05 59.94041 24.84118 10454 ft 286 kts 347°
2026-04-20 19:05 59.95942 24.82903 9845 ft 293 kts 346°
2026-04-20 19:06 59.97906 24.81642 9202 ft 299 kts 346°
2026-04-20 19:06 59.99895 24.80363 8570 ft 303 kts 346°
2026-04-20 19:06 60.01916 24.79061 7949 ft 306 kts 346°
2026-04-20 19:06 60.03926 24.77762 7229 ft 302 kts 345°
2026-04-20 19:07 60.05917 24.76475 6460 ft 300 kts 345°
2026-04-20 19:07 60.07902 24.75191 5791 ft 295 kts 345°
2026-04-20 19:07 60.09794 24.73962 5563 ft 276 kts 345°
2026-04-20 19:07 60.11562 24.72813 5398 ft 259 kts 345°
2026-04-20 19:08 60.13227 24.71733 5216 ft 244 kts 345°
2026-04-20 19:08 60.16394 24.69684 4098 ft 247 kts 345°
2026-04-20 19:08 60.18037 24.68618 3204 ft 250 kts 345°
2026-04-20 19:09 60.19686 24.67887 2626 ft 234 kts
2026-04-20 19:09 60.21070 24.68945 2471 ft 205 kts 36°
2026-04-20 19:09 60.22146 24.70681 2335 ft 182 kts 40°
2026-04-20 19:09 60.23034 24.72261 2291 ft 166 kts 43°
2026-04-20 19:10 60.23847 24.73930 2302 ft 167 kts 46°
2026-04-20 19:10 60.24613 24.75603 2132 ft 154 kts 46°
2026-04-20 19:10 60.25293 24.77108 1933 ft 137 kts 46°
2026-04-20 19:10 60.25697 24.78004 1842 ft 125 kts 46°
2026-04-20 19:11 60.26262 24.79255 1686 ft 119 kts 46°
2026-04-20 19:11 60.26819 24.80482 1509 ft 120 kts 46°
2026-04-20 19:11 60.27388 24.81741 1335 ft 121 kts 46°
2026-04-20 19:11 60.27944 24.83003 1201 ft 120 kts 47°
2026-04-20 19:12 60.28512 24.84300 1021 ft 126 kts 46°
2026-04-20 19:12 60.29113 24.85620 823 ft 130 kts 46°
2026-04-20 19:12 60.29730 24.86957 653 ft 132 kts 45°
2026-04-20 19:12 60.30351 24.88330 467 ft 132 kts 46°
2026-04-20 19:13 60.30970 24.89685 298 ft 130 kts 45°
2026-04-20 19:13 60.31584 24.91033 158 ft 126 kts 45°
2026-04-20 19:13 60.32052 24.92064 161 ft 48 kts 47°
2026-04-20 19:13 60.32173 24.92337 166 ft 25 kts 58°
2026-04-20 19:14 60.32238 24.92679 168 ft 27 kts 75°
2026-04-20 19:14 60.32280 24.93069 170 ft 24 kts 99°
2026-04-20 19:14 60.32258 24.93142 170 ft 0 kts 136°
2026-04-20 19:16 60.32246 24.93174 170 ft 10 kts 123°
2026-04-20 19:16 60.32248 24.93281 171 ft 10 kts 46°
2026-04-20 19:17 60.32334 24.93468 173 ft 20 kts 47°
2026-04-20 19:17 60.32426 24.93664 174 ft 19 kts 44°
2026-04-20 19:17 60.32522 24.93843 176 ft 18 kts 52°
2026-04-20 19:17 60.32601 24.94042 178 ft 18 kts 50°
2026-04-20 19:18 60.32680 24.94231 180 ft 17 kts 49°
2026-04-20 19:18 60.32759 24.94404 181 ft 17 kts 49°
2026-04-20 19:18 60.32834 24.94573 183 ft 16 kts 46°
2026-04-20 19:18 60.32909 24.94734 183 ft 15 kts 47°
2026-04-20 19:19 60.32979 24.94888 184 ft 15 kts 47°
2026-04-20 19:19 60.33049 24.95040 183 ft 15 kts 46°
2026-04-20 19:19 60.33123 24.95201 181 ft 16 kts 50°
2026-04-20 19:19 60.33195 24.95383 178 ft 17 kts 64°
2026-04-20 19:20 60.33162 24.95604 175 ft 18 kts 134°
2026-04-20 19:20 60.33065 24.95769 173 ft 19 kts 144°
2026-04-20 19:20 60.32956 24.95906 171 ft 18 kts 149°
2026-04-20 19:20 60.32907 24.96075 170 ft 13 kts 79°
2026-04-20 19:21 60.32860 24.96233 169 ft 18 kts 148°
2026-04-20 19:21 60.32709 24.96410 166 ft 31 kts 151°
2026-04-20 19:21 60.32486 24.96662 164 ft 41 kts 150°
2026-04-20 19:21 60.32374 24.96772 163 ft 15 kts 158°
2026-04-20 19:22 60.32253 24.96899 162 ft 23 kts 150°
2026-04-20 19:22 60.32148 24.97013 162 ft 22 kts 152°
2026-04-20 19:22 60.31975 24.97194 161 ft 33 kts 158°
2026-04-20 19:22 60.31742 24.97426 160 ft 42 kts 152°
2026-04-20 19:23 60.31573 24.97599 159 ft 27 kts 163°
2026-04-20 19:23 60.31469 24.97569 159 ft 10 kts 153°
2026-04-20 19:23 60.31446 24.97589 159 ft 1 kts 173°
2026-04-20 19:23 60.31409 24.97515 159 ft 13 kts 242°
2026-04-20 19:24 60.31401 24.97484 159 ft 0 kts 243°